SCP
0 0 0 0 0 0 0 0 0 0 1 0 1 1 1 1 1 0 1 1 1 0 0 0 0 0 0 0 0 0 0 0 0 0 0 0 0 0 0 0 0 0 0
0 0 0 0 0 0 0 0 0 0 1 1 1 1 1 1 1 1 1 1 1 1 0 0 0 0 0 0 0 0 0 0 0 0 0 0 0 0 0 0 0 0 0
-0 -0 0 0 0 0 0 0 0 0 1 1 1 0 1 1 1 1 1 1 1 1 1 0 0 0 0 0 0 0 0 0 0 0 0 0 0 0 0 0 0 0 0
-0 -0 -0 -0 0 0 0 0 0 0 2 2 2 1 2 2 1 2 1 1 1 2 2 1 1 1 1 1 0 0 0 0 0 0 0 0 0 0 0 0 0 0 0
0 -0 -0 -0 -0 0 0 0 0 0 0 3 2 2 1 1 0 1 1 1 2 2 2 1 1 1 1 1 0 0 0 0 0 0 0 0 0 0 0 0 0 0 0
0 0 0 -0 -0 -0 -0 0 0 0 0 1 1 1 1 0 0 1 1 2 2 2 2 1 1 1 1 1 0 0 0 0 0 0 0 0 0 0 0 0 0 0 0
-0 0 0 0 0 -0 -0 -0 0 0 0 0 1 0 0 0 0 1 1 2 2 2 2 2 1 1 1 1 0 0 0 0 0 0 0 0 0 0 0 0 0 0 0
0 0 -0 0 0 0 -0 -0 0 0 0 0 0 0 0 0 0 1 2 2 2 2 2 2 2 1 1 0 0 0 0 0 0 0 0 0 0 0 0 0 0 0 0
-0 0 -0 -0 0 0 0 -0 0 0 0 0 0 0 0 0 0 1 2 2 2 2 2 2 1 1 0 0 0 0 0 0 0 0 0 0 0 0 0 0 0 0 0
-0 -0 -0 0 0 0 0 0 0 0 0 0 0 0 0 0 0 1 2 2 2 2 2 1 1 0 0 0 0 0 0 0 0 0 0 0 0 0 0 0 0 0 0
-0 -0 -0 0 0 0 0 0 0 0 0 0 0 0 1 1 1 2 2 2 2 1 1 1 0 0 0 0 0 0 0 0 0 0 0 0 0 0 0 0 0 0 0
-0 -0 0 0 0 0 0 0 0 0 0 0 0 0 1 1 2 2 2 2 1 1 1 1 0 0 0 0 0 0 0 0 0 0 0 0 0 0 0 0 0 0 0
-0 0 0 0 0 0 0 0 2 0 0 0 1 1 2 2 2 2 2 1 1 1 1 1 0 0 0 0 0 0 0 0 0 0 0 0 0 0 0 0 0 0 0
-0 0 0 0 0 0 0 0 1 1 2 2 3 3 3 3 3 2 2 1 1 1 1 0 0 0 0 0 0 0 0 0 0 0 0 0 0 0 0 0 0 0 0
-0 0 0 0 0 0 0 0 1 2 2 2 3 3 3 2 2 2 2 1 1 1 0 0 0 0 0 0 0 0 0 0 0 0 0 0 0 0 0 0 0 0 0
-0 0 -0 0 0 0 0 0 1 1 3 3 3 3 2 2 1 1 1 1 0 0 0 0 0 0 0 0 0 0 0 0 0 0 0 0 0 0 0 0 -0 -0 0
-0 0 0 0 0 0 0 0 0 0 2 2 2 1 1 1 1 0 0 0 0 0 0 0 0 0 0 0 0 0 0 0 0 0 0 0 0 0 0 -0 0 -0 0
-0 -0 -0 0 0 0 0 0 0 0 0 2 1 1 1 0 0 0 0 0 0 0 0 0 0 0 0 0 0 0 0 0 0 0 0 0 0 0 0 0 0 0 0
-0 -0 -0 0 0 0 0 0 0 0 0 0 1 1 0 0 0 0 0 0 0 0 0 0 0 0 0 0 0 0 0 0 0 0 0 0 0 0 0 0 0 0 0
0 -0 -0 0 0 0 0 0 0 0 0 0 1 0 0 0 0 0 0 0 0 0 0 0 0 0 0 0 0 0 0 0 0 0 0 0 0 0 0 0 0 0 0
0 0 0 0 0 0 0 -0 0 0 0 0 0 0 0 0 0 0 0 0 0 0 0 0 0 0 0 0 0 0 0 0 0 0 0 0 0 0 0 0 0 0 0
-0 0 0 0 0 0 -0 0 0 0 -0 0 0 0 0 0 0 0 0 0 0 0 0 0 0 0 0 0 0 0 0 0 0 0 0 0 0 0 0 0 0 0 0
0 0 0 0 0 0 -0 -0 0 0 0 -0 0 0 0 0 0 0 0 0 0 0 0 0 0 0 0 0 0 0 0 0 0 0 0 0 0 0 0 -0 0 0 0
0 0 0 0 0 0 -0 0 0 0 0 0 0 0 0 0 0 0 0 0 0 0 0 0 0 0 0 0 0 0 0 0 0 0 0 0 0 0 0 0 0 0 0
0 0 0 0 0 0 -0 0 0 0 0 0 0 0 0 0 0 0 0 0 0 0 0 0 0 0 0 0 0 0 0 0 0 0 0 0 0 0 0 0 0 0 0
0 0 0 0 0 0 0 0 0 0 0 0 0 0 0 0 0 0 0 -0 0 0 0 0 0 0 -0 -0 -0 0 0 0 0 0 0 0 0 0 0 0 0 0 0
Wind_Speed_500mb
58 63 61 53 51 49 52 65 63 53 59 84 81 87 80 71 66 59 60 56 52 53 53 52 46 42 38 44 44 38 33 32 33 34 34 33 33 37 41 40 45 40 36
67 64 65 63 56 56 55 58 70 67 60 80 83 79 83 83 75 69 65 54 51 52 55 55 43 38 37 39 44 42 37 33 36 36 35 30 33 37 40 38 34 33 38
57 57 60 61 58 60 62 59 63 70 71 63 97 95 96 90 83 78 66 61 54 53 56 52 39 34 34 36 45 42 39 39 40 37 33 19 18 17 17 20 20 23 28
48 56 64 72 67 67 65 64 61 58 67 63 80 105 101 96 84 75 71 53 52 56 58 44 36 33 34 37 40 39 41 41 41 37 38 43 40 26 12 17 11 19 21
57 65 66 74 82 76 75 68 64 58 60 74 73 95 104 104 86 76 56 50 51 55 50 39 35 33 37 35 37 38 37 38 37 36 38 42 41 37 30 29 18 21 22
53 61 67 72 83 83 80 76 71 62 59 74 78 95 107 106 90 65 57 51 51 47 43 37 36 33 36 36 36 38 40 33 33 32 33 38 38 33 31 30 24 21 19
65 67 67 73 75 83 84 80 77 68 59 76 89 95 104 102 85 73 59 52 50 48 45 40 35 37 35 35 34 38 36 33 27 28 31 32 32 31 29 24 21 18 21
75 81 83 82 66 77 82 83 83 77 65 74 76 78 93 95 84 72 58 50 48 46 42 37 35 31 28 33 38 39 31 32 29 27 29 30 30 30 28 26 22 21 21
75 89 95 91 62 65 72 77 85 83 67 72 76 64 85 92 84 68 58 50 46 47 40 37 37 30 30 34 40 36 33 30 28 27 31 30 28 27 27 28 26 21 19
77 90 100 91 59 68 62 68 80 83 65 72 85 81 82 85 81 69 62 57 52 45 39 44 40 31 38 39 35 36 33 28 28 29 29 27 24 24 25 25 25 21 20
73 82 81 73 55 65 56 47 61 71 70 74 79 95 95 89 76 65 67 60 56 44 44 48 42 41 42 39 35 34 29 26 27 27 25 21 22 22 22 23 23 20 20
74 77 76 60 60 53 52 47 30 48 73 76 81 86 91 81 75 73 62 60 58 42 49 53 46 46 44 41 34 32 27 24 24 22 22 19 20 23 22 24 24 23 19
75 76 83 78 60 49 66 55 26 26 40 71 80 81 84 83 76 67 58 59 53 47 56 52 52 51 45 39 31 25 24 23 22 17 16 15 20 24 23 22 22 28 25
66 77 77 86 76 55 74 59 38 28 34 45 54 63 65 63 59 55 54 58 50 55 62 55 51 47 44 32 26 25 20 28 25 19 14 15 19 22 22 21 21 26 29
50 64 61 84 74 62 66 54 30 29 38 53 48 51 53 52 52 53 55 50 55 65 62 57 50 45 38 27 30 24 24 26 27 24 18 17 17 17 19 22 23 29 27
49 51 70 75 81 80 66 49 18 25 35 47 57 57 54 52 50 52 50 52 62 65 64 58 48 44 39 29 27 27 28 22 22 21 18 19 18 19 21 21 24 28 26
44 63 51 54 62 64 42 43 12 13 32 40 47 45 44 46 51 56 60 60 62 66 61 52 46 42 38 31 34 28 25 22 20 18 17 18 18 18 25 24 22 25 24
53 68 72 72 72 68 57 43 20 20 30 23 39 45 51 59 61 64 63 57 65 61 54 50 48 41 36 32 30 29 29 24 21 19 19 16 13 18 27 26 23 24 22
57 71 62 64 65 62 56 55 22 22 17 24 38 52 63 70 71 63 57 57 60 55 48 50 43 40 34 33 33 32 30 26 23 23 20 17 12 13 20 23 20 19 18
68 70 59 58 55 54 50 54 31 31 13 4 36 56 62 67 63 60 61 59 56 54 48 45 38 35 37 36 31 31 31 30 29 28 23 21 15 15 18 17 14 16 21
71 72 67 52 49 45 44 47 29 27 39 25 21 59 63 58 60 63 59 61 55 49 44 38 38 36 32 30 29 27 26 28 30 32 22 22 21 16 16 16 13 12 16
77 69 64 50 39 37 39 42 20 29 61 58 53 72 58 62 64 65 60 55 50 44 42 43 43 38 33 30 28 23 24 25 22 27 21 21 18 18 19 20 17 18 18
66 60 58 47 34 31 37 40 17 21 49 76 83 65 66 64 56 55 56 55 49 48 46 48 44 40 37 32 28 25 26 26 26 21 18 18 19 19 19 19 21 21 21
63 57 48 42 38 30 33 40 17 57 36 74 73 68 64 63 54 51 53 48 50 49 49 49 44 41 37 33 30 28 29 28 28 23 19 16 18 18 18 22 26 23 21
56 46 40 38 32 35 33 31 13 12 64 75 73 67 61 62 54 50 49 43 41 43 47 46 41 39 34 30 26 25 27 28 28 25 21 19 19 18 20 22 28 27 22
48 40 38 34 28 24 35 16 10 42 63 68 69 59 58 55 45 45 45 38 35 34 30 28 29 27 15 20 25 26 23 22 23 24 21 21 22 21 20 28 37 30 24
Wind_Direction_500mb
328 319 314 312 301 297 295 278 268 269 262 245 235 231 231 234 238 248 250 246 252 263 273 280 279 274 271 270 263 261 255 252 257 265 263 258 252 257 272 281 285 278 272
321 320 313 312 303 300 298 288 279 273 263 244 232 227 227 231 237 246 246 247 251 260 273 278 277 273 269 261 253 253 248 245 250 248 248 248 259 264 274 279 279 270 268
318 326 320 314 305 294 296 299 289 274 269 254 238 234 227 229 233 241 240 242 250 264 274 274 266 267 262 260 250 250 243 240 243 244 237 260 248 272 268 283 279 268 262
320 318 316 313 307 289 291 293 298 281 261 251 245 235 229 229 235 241 242 243 254 267 273 260 257 262 262 252 245 249 242 239 242 238 246 255 260 267 279 296 287 278 274
319 317 316 309 301 297 291 286 293 283 261 245 242 238 232 234 241 242 238 244 258 267 261 256 252 257 253 245 241 239 234 234 240 240 246 255 260 262 259 284 287 288 274
319 318 312 307 302 292 289 281 285 285 253 250 245 234 236 237 236 238 235 247 262 262 256 247 245 255 248 244 241 227 230 237 241 241 246 255 255 259 267 269 279 285 281
322 321 322 315 305 299 290 281 279 280 260 247 250 236 236 237 232 239 241 251 258 256 250 241 240 246 252 238 209 223 228 226 231 239 248 254 257 264 266 257 266 274 283
321 318 318 316 306 301 289 284 275 273 265 243 246 233 233 228 231 238 244 250 250 254 251 240 238 242 240 223 216 224 221 227 231 240 243 252 256 259 254 259 260 272 269
323 317 313 311 303 307 292 284 271 269 259 242 240 233 224 225 230 238 246 249 247 249 239 230 230 228 218 207 214 221 214 216 234 241 250 252 252 253 251 250 258 260 259
332 325 316 308 297 319 302 283 265 257 249 241 240 234 228 233 236 240 244 243 241 237 226 223 220 218 204 212 210 207 214 226 236 246 245 248 245 246 244 245 250 254 246
324 322 316 306 293 320 312 301 262 253 243 235 235 235 234 234 235 244 243 239 235 227 220 218 217 206 206 208 206 208 217 227 237 239 239 237 243 239 240 242 243 244 240
329 323 329 324 309 313 317 323 273 260 241 238 231 236 234 235 240 240 239 235 224 223 218 215 209 202 201 206 206 213 221 229 234 227 229 228 236 239 245 245 242 231 231
334 323 328 327 329 355 344 333 296 250 246 235 227 226 228 232 236 237 224 218 217 218 209 205 201 199 200 204 206 219 223 225 205 199 205 231 239 240 253 243 235 222 211
331 316 323 330 346 351 340 337 309 258 221 219 212 215 216 218 217 212 209 212 217 210 200 197 195 195 195 200 206 200 215 204 195 201 221 235 253 250 243 239 224 207 204
323 309 324 334 342 344 335 336 314 239 218 217 212 212 209 203 202 204 210 213 206 200 193 187 187 187 189 195 195 210 215 197 206 217 231 253 253 246 236 223 216 204 205
297 321 325 337 338 327 317 340 339 245 227 218 208 199 194 196 205 208 194 195 194 191 182 180 181 178 186 198 203 212 194 200 206 222 237 247 242 249 221 206 205 203 213
317 312 304 303 298 305 330 348 331 215 209 206 194 194 204 204 192 179 188 189 185 175 172 176 175 180 188 200 204 206 207 211 218 226 238 234 254 227 207 200 200 201 215
320 320 316 320 329 343 346 353 313 176 188 189 219 212 202 190 182 180 172 178 169 168 168 172 182 185 197 206 197 202 204 219 226 229 222 231 233 208 200 204 210 218 222
311 318 319 314 325 337 345 342 313 252 199 194 226 216 195 181 174 169 169 171 168 169 175 175 180 193 193 194 197 200 205 215 224 208 207 209 209 191 195 198 215 214 209
314 318 313 311 319 334 341 347 329 263 278 320 215 202 182 170 168 170 166 169 171 172 170 175 192 190 187 195 204 207 212 215 203 193 206 205 197 196 198 202 215 209 198
312 320 317 311 316 332 340 335 308 266 236 232 233 193 175 167 166 163 163 164 166 173 183 185 180 186 195 198 201 200 203 207 206 193 200 211 202 191 189 189 194 208 214
312 314 314 318 314 325 335 331 281 276 220 235 210 180 166 167 165 165 167 171 176 177 177 180 183 188 195 196 195 196 194 196 200 191 205 223 216 199 198 203 197 199 210
313 310 313 313 308 324 345 344 267 184 230 262 175 161 163 164 169 176 176 177 182 181 182 188 192 191 189 189 193 191 190 192 189 199 205 215 212 210 207 200 204 195 202
298 309 310 309 310 323 343 322 220 228 229 164 152 155 159 163 161 165 176 179 183 187 191 192 193 190 189 191 191 190 192 188 187 197 203 205 207 210 202 207 197 200 211
299 302 296 298 308 313 335 289 331 161 159 155 157 160 163 167 172 177 182 190 194 199 196 194 193 189 194 198 199 198 195 198 196 206 210 217 210 204 191 203 204 198 200
296 295 286 285 290 306 308 287 297 164 166 163 159 161 165 171 172 180 183 186 189 188 192 189 187 184 174 180 191 190 189 191 198 208 222 222 217 211 201 203 195 198 201
Wind_Speed_850mb
58 63 61 53 51 49 52 65 63 53 59 84 81 87 80 71 66 59 60 56 52 53 53 52 46 42 38 44 44 38 33 32 33 34 34 33 33 37 41 40 45 40 36
67 64 65 63 56 56 55 58 70 67 60 80 83 79 83 83 75 69 65 54 51 52 55 55 43 38 37 39 44 42 37 33 36 36 35 30 33 37 40 38 34 33 38
57 57 60 61 58 60 62 59 63 70 71 63 97 95 96 90 83 78 66 61 54 53 56 52 39 34 34 36 45 42 39 39 40 37 33 19 18 17 17 20 20 23 28
48 56 64 72 67 67 65 64 61 58 67 63 80 105 101 96 84 75 71 53 52 56 58 44 36 33 34 37 40 39 41 41 41 37 38 43 40 26 12 17 11 19 21
57 65 66 74 82 76 75 68 64 58 60 74 73 95 104 104 86 76 56 50 51 55 50 39 35 33 37 35 37 38 37 38 37 36 38 42 41 37 30 29 18 21 22
53 61 67 72 83 83 80 76 71 62 59 74 78 95 107 106 90 65 57 51 51 47 43 37 36 33 36 36 36 38 40 33 33 32 33 38 38 33 31 30 24 21 19
65 67 67 73 75 83 84 80 77 68 59 76 89 95 104 102 85 73 59 52 50 48 45 40 35 37 35 35 34 38 36 33 27 28 31 32 32 31 29 24 21 18 21
75 81 83 82 66 77 82 83 83 77 65 74 76 78 93 95 84 72 58 50 48 46 42 37 35 31 28 33 38 39 31 32 29 27 29 30 30 30 28 26 22 21 21
75 89 95 91 62 65 72 77 85 83 67 72 76 64 85 92 84 68 58 50 46 47 40 37 37 30 30 34 40 36 33 30 28 27 31 30 28 27 27 28 26 21 19
77 90 100 91 59 68 62 68 80 83 65 72 85 81 82 85 81 69 62 57 52 45 39 44 40 31 38 39 35 36 33 28 28 29 29 27 24 24 25 25 25 21 20
73 82 81 73 55 65 56 47 61 71 70 74 79 95 95 89 76 65 67 60 56 44 44 48 42 41 42 39 35 34 29 26 27 27 25 21 22 22 22 23 23 20 20
74 77 76 60 60 53 52 47 30 48 73 76 81 86 91 81 75 73 62 60 58 42 49 53 46 46 44 41 34 32 27 24 24 22 22 19 20 23 22 24 24 23 19
75 76 83 78 60 49 66 55 26 26 40 71 80 81 84 83 76 67 58 59 53 47 56 52 52 51 45 39 31 25 24 23 22 17 16 15 20 24 23 22 22 28 25
66 77 77 86 76 55 74 59 38 28 34 45 54 63 65 63 59 55 54 58 50 55 62 55 51 47 44 32 26 25 20 28 25 19 14 15 19 22 22 21 21 26 29
50 64 61 84 74 62 66 54 30 29 38 53 48 51 53 52 52 53 55 50 55 65 62 57 50 45 38 27 30 24 24 26 27 24 18 17 17 17 19 22 23 29 27
49 51 70 75 81 80 66 49 18 25 35 47 57 57 54 52 50 52 50 52 62 65 64 58 48 44 39 29 27 27 28 22 22 21 18 19 18 19 21 21 24 28 26
44 63 51 54 62 64 42 43 12 13 32 40 47 45 44 46 51 56 60 60 62 66 61 52 46 42 38 31 34 28 25 22 20 18 17 18 18 18 25 24 22 25 24
53 68 72 72 72 68 57 43 20 20 30 23 39 45 51 59 61 64 63 57 65 61 54 50 48 41 36 32 30 29 29 24 21 19 19 16 13 18 27 26 23 24 22
57 71 62 64 65 62 56 55 22 22 17 24 38 52 63 70 71 63 57 57 60 55 48 50 43 40 34 33 33 32 30 26 23 23 20 17 12 13 20 23 20 19 18
68 70 59 58 55 54 50 54 31 31 13 4 36 56 62 67 63 60 61 59 56 54 48 45 38 35 37 36 31 31 31 30 29 28 23 21 15 15 18 17 14 16 21
71 72 67 52 49 45 44 47 29 27 39 25 21 59 63 58 60 63 59 61 55 49 44 38 38 36 32 30 29 27 26 28 30 32 22 22 21 16 16 16 13 12 16
77 69 64 50 39 37 39 42 20 29 61 58 53 72 58 62 64 65 60 55 50 44 42 43 43 38 33 30 28 23 24 25 22 27 21 21 18 18 19 20 17 18 18
66 60 58 47 34 31 37 40 17 21 49 76 83 65 66 64 56 55 56 55 49 48 46 48 44 40 37 32 28 25 26 26 26 21 18 18 19 19 19 19 21 21 21
63 57 48 42 38 30 33 40 17 57 36 74 73 68 64 63 54 51 53 48 50 49 49 49 44 41 37 33 30 28 29 28 28 23 19 16 18 18 18 22 26 23 21
56 46 40 38 32 35 33 31 13 12 64 75 73 67 61 62 54 50 49 43 41 43 47 46 41 39 34 30 26 25 27 28 28 25 21 19 19 18 20 22 28 27 22
48 40 38 34 28 24 35 16 10 42 63 68 69 59 58 55 45 45 45 38 35 34 30 28 29 27 15 20 25 26 23 22 23 24 21 21 22 21 20 28 37 30 24
Wind_Direction_850mb
328 319 314 312 301 297 295 278 268 269 262 245 235 231 231 234 238 248 250 246 252 263 273 280 279 274 271 270 263 261 255 252 257 265 263 258 252 257 272 281 285 278 272
321 320 313 312 303 300 298 288 279 273 263 244 232 227 227 231 237 246 246 247 251 260 273 278 277 273 269 261 253 253 248 245 250 248 248 248 259 264 274 279 279 270 268
318 326 320 314 305 294 296 299 289 274 269 254 238 234 227 229 233 241 240 242 250 264 274 274 266 267 262 260 250 250 243 240 243 244 237 260 248 272 268 283 279 268 262
320 318 316 313 307 289 291 293 298 281 261 251 245 235 229 229 235 241 242 243 254 267 273 260 257 262 262 252 245 249 242 239 242 238 246 255 260 267 279 296 287 278 274
319 317 316 309 301 297 291 286 293 283 261 245 242 238 232 234 241 242 238 244 258 267 261 256 252 257 253 245 241 239 234 234 240 240 246 255 260 262 259 284 287 288 274
319 318 312 307 302 292 289 281 285 285 253 250 245 234 236 237 236 238 235 247 262 262 256 247 245 255 248 244 241 227 230 237 241 241 246 255 255 259 267 269 279 285 281
322 321 322 315 305 299 290 281 279 280 260 247 250 236 236 237 232 239 241 251 258 256 250 241 240 246 252 238 209 223 228 226 231 239 248 254 257 264 266 257 266 274 283
321 318 318 316 306 301 289 284 275 273 265 243 246 233 233 228 231 238 244 250 250 254 251 240 238 242 240 223 216 224 221 227 231 240 243 252 256 259 254 259 260 272 269
323 317 313 311 303 307 292 284 271 269 259 242 240 233 224 225 230 238 246 249 247 249 239 230 230 228 218 207 214 221 214 216 234 241 250 252 252 253 251 250 258 260 259
332 325 316 308 297 319 302 283 265 257 249 241 240 234 228 233 236 240 244 243 241 237 226 223 220 218 204 212 210 207 214 226 236 246 245 248 245 246 244 245 250 254 246
324 322 316 306 293 320 312 301 262 253 243 235 235 235 234 234 235 244 243 239 235 227 220 218 217 206 206 208 206 208 217 227 237 239 239 237 243 239 240 242 243 244 240
329 323 329 324 309 313 317 323 273 260 241 238 231 236 234 235 240 240 239 235 224 223 218 215 209 202 201 206 206 213 221 229 234 227 229 228 236 239 245 245 242 231 231
334 323 328 327 329 355 344 333 296 250 246 235 227 226 228 232 236 237 224 218 217 218 209 205 201 199 200 204 206 219 223 225 205 199 205 231 239 240 253 243 235 222 211
331 316 323 330 346 351 340 337 309 258 221 219 212 215 216 218 217 212 209 212 217 210 200 197 195 195 195 200 206 200 215 204 195 201 221 235 253 250 243 239 224 207 204
323 309 324 334 342 344 335 336 314 239 218 217 212 212 209 203 202 204 210 213 206 200 193 187 187 187 189 195 195 210 215 197 206 217 231 253 253 246 236 223 216 204 205
297 321 325 337 338 327 317 340 339 245 227 218 208 199 194 196 205 208 194 195 194 191 182 180 181 178 186 198 203 212 194 200 206 222 237 247 242 249 221 206 205 203 213
317 312 304 303 298 305 330 348 331 215 209 206 194 194 204 204 192 179 188 189 185 175 172 176 175 180 188 200 204 206 207 211 218 226 238 234 254 227 207 200 200 201 215
320 320 316 320 329 343 346 353 313 176 188 189 219 212 202 190 182 180 172 178 169 168 168 172 182 185 197 206 197 202 204 219 226 229 222 231 233 208 200 204 210 218 222
311 318 319 314 325 337 345 342 313 252 199 194 226 216 195 181 174 169 169 171 168 169 175 175 180 193 193 194 197 200 205 215 224 208 207 209 209 191 195 198 215 214 209
314 318 313 311 319 334 341 347 329 263 278 320 215 202 182 170 168 170 166 169 171 172 170 175 192 190 187 195 204 207 212 215 203 193 206 205 197 196 198 202 215 209 198
312 320 317 311 316 332 340 335 308 266 236 232 233 193 175 167 166 163 163 164 166 173 183 185 180 186 195 198 201 200 203 207 206 193 200 211 202 191 189 189 194 208 214
312 314 314 318 314 325 335 331 281 276 220 235 210 180 166 167 165 165 167 171 176 177 177 180 183 188 195 196 195 196 194 196 200 191 205 223 216 199 198 203 197 199 210
313 310 313 313 308 324 345 344 267 184 230 262 175 161 163 164 169 176 176 177 182 181 182 188 192 191 189 189 193 191 190 192 189 199 205 215 212 210 207 200 204 195 202
298 309 310 309 310 323 343 322 220 228 229 164 152 155 159 163 161 165 176 179 183 187 191 192 193 190 189 191 191 190 192 188 187 197 203 205 207 210 202 207 197 200 211
299 302 296 298 308 313 335 289 331 161 159 155 157 160 163 167 172 177 182 190 194 199 196 194 193 189 194 198 199 198 195 198 196 206 210 217 210 204 191 203 204 198 200
296 295 286 285 290 306 308 287 297 164 166 163 159 161 165 171 172 180 183 186 189 188 192 189 187 184 174 180 191 190 189 191 198 208 222 222 217 211 201 203 195 198 201